EW9139 Weather Reports


Display with metric or nautical units.
time (UTC)temp
F
wind
direction
speed
MPH
gust
MPH
rain 1hr
in
rain 24hr
in
rain mn
in
humidity
%
barometer
mb
20190219053811 23 178 0.0 0.0 0.00 0.01 0.01 73 1035.6
20190219053248 23 178 0.0 0.0 0.00 0.01 0.01 73 1035.6
20190219052746 23 178 0.0 0.0 0.00 0.01 0.01 72 1035.6
20190219052241 23 178 0.0 0.0 0.00 0.01 0.01 72 1035.5
20190219051726 24 178 0.0 0.0 0.00 0.01 0.01 72 1035.5
20190219051222 24 178 0.0 0.0 0.00 0.01 0.01 71 1036.3
20190219050722 24 178 0.0 0.0 0.00 0.01 0.01 71 1036.4
20190219050226 24 178 0.0 0.0 0.00 0.01 0.01 71 1036.4
20190219045724 24 178 0.0 0.0 0.00 0.01 0.01 70 1036.4
20190219045214 24 178 0.0 0.0 0.00 0.01 0.01 70 1036.4
20190219044712 25 180 0.0 0.0 0.00 0.01 0.01 68 1036.7
20190219044206 25 245 0.0 0.0 0.00 0.01 0.01 67 1036.4
20190219043657 25 245 0.0 0.0 0.00 0.01 0.01 66 1036.4
20190219043202 25 350 0.0 0.0 0.00 0.01 0.01 65 1036.5
20190219042626 25 350 0.0 0.0 0.00 0.01 0.01 65 1036.9
20190219042136 25 350 0.0 0.0 0.00 0.01 0.01 64 1036.9
20190219041608 25 350 0.0 0.0 0.00 0.01 0.01 66 1036.9
20190219041030 25 350 0.0 0.0 0.00 0.01 0.01 65 1037.2
20190219040526 25 350 0.0 0.0 0.00 0.01 0.01 65 1037.2
20190219035957 25 350 0.0 0.0 0.00 0.01 0.01 67 1037.2
20190219035454 25 350 0.0 0.0 0.00 0.01 0.01 66 1036.8
20190219034934 26 350 0.0 2.0 0.00 0.01 0.01 67 1036.8
20190219034428 26 350 0.0 2.0 0.00 0.01 0.01 66 1036.8
20190219033912 26 331 0.0 0.0 0.00 0.01 0.01 65 1036.9
20190219033348 26 331 0.0 0.0 0.00 0.01 0.01 66 1036.9
20190219032828 26 342 0.0 0.0 0.00 0.01 0.01 65 1037.0
20190219032310 26 342 0.0 4.0 0.00 0.01 0.01 65 1037.0
20190219031808 26 344 0.0 4.0 0.00 0.01 0.01 67 1037.0
20190219031304 26 329 0.0 0.0 0.00 0.01 0.01 66 1037.0
20190219030804 26 329 0.0 0.0 0.00 0.01 0.01 67 1036.9
20190219030234 26 327 0.0 2.0 0.00 0.01 0.01 68 1036.9
20190219025738 26 327 0.0 2.0 0.00 0.01 0.01 67 1036.9
20190219025225 26 327 0.0 0.0 0.00 0.01 0.01 66 1036.9
20190219024718 26 327 0.0 2.0 0.00 0.01 0.01 66 1037.0
20190219024218 26 327 0.0 2.0 0.00 0.01 0.01 65 1036.8
20190219023706 26 327 0.0 3.0 0.00 0.01 0.01 65 1036.8
20190219023205 26 324 0.0 0.0 0.00 0.01 0.01 65 1036.8
20190219022706 26 328 0.0 0.0 0.00 0.01 0.01 65 1036.7
20190219022203 26 328 0.0 0.0 0.00 0.01 0.01 64 1036.5
20190219021658 26 329 0.0 0.0 0.00 0.01 0.01 65 1036.5
20190219021142 26 323 0.0 1.0 0.00 0.01 0.01 64 1036.4
20190219020636 26 323 0.0 3.0 0.00 0.01 0.01 63 1036.4
20190219020132 26 325 0.0 0.0 0.00 0.01 0.01 62 1036.4
20190219015620 26 320 0.0 2.0 0.00 0.01 0.01 62 1036.1
20190219015109 26 321 0.0 3.0 0.00 0.01 0.01 62 1036.2
20190219014556 26 318 0.0 4.0 0.00 0.01 0.01 61 1036.3
20190219014049 27 314 0.0 4.0 0.00 0.01 0.01 61 1036.3
20190219013537 27 325 0.0 4.0 0.00 0.01 0.01 62 1036.3
20190219013037 27 310 0.0 4.0 0.00 0.01 0.01 60 1036.3
20190219012534 26 312 0.0 3.0 0.00 0.01 0.01 60 1036.5
20190219012024 26 318 0.0 2.0 0.00 0.01 0.01 60 1036.5
20190219011528 26 320 1.0 6.0 0.00 0.01 0.01 61 1036.5
20190219011002 26 311 2.0 6.0 0.00 0.01 0.01 58 1035.9
20190219010459 27 290 1.0 5.0 0.00 0.01 0.01 58 1036.0
20190219010009 27 307 0.0 3.0 0.00 0.01 0.01 58 1036.1
20190219005508 27 304 1.0 7.0 0.00 0.01 0.01 57 1036.3
20190219005003 27 306 2.0 7.0 0.00 0.01 0.01 56 1036.4
20190219004457 28 309 2.0 9.0 0.00 0.01 0.01 57 1036.5
20190219003955 28 307 1.0 9.0 0.00 0.01 0.01 57 1036.4
20190219003458 28 308 2.0 6.0 0.00 0.01 0.01 58 1036.5
20190219002941 29 311 3.0 10.0 0.00 0.01 0.01 57 1036.5
20190219002442 29 309 2.0 10.0 0.00 0.01 0.01 56 1036.5
20190219001941 29 308 1.0 5.0 0.00 0.01 0.01 56 1036.5
20190219001428 29 267 2.0 5.0 0.00 0.01 0.01 56 1036.5
20190219000928 30 294 2.0 6.0 0.00 0.01 0.01 56 1036.5
20190219000426 30 315 2.0 6.0 0.00 0.01 0.01 55 1036.5
20190218235926 31 324 2.0 7.0 0.00 0.01 0.01 55 1036.8
20190218235425 31 311 2.0 7.0 0.00 0.01 0.01 55 1037.0
20190218234922 31 355 2.0 7.0 0.00 0.01 0.01 54 1037.0
20190218234424 31 5 3.0 9.0 0.00 0.01 0.01 55 1037.1
20190218233923 31 344 4.0 11.0 0.00 0.01 0.01 53 1036.9
20190218233423 31 311 4.0 11.0 0.00 0.01 0.01 54 1036.9
20190218232922 31 309 3.0 9.0 0.00 0.01 0.01 56 1037.0
20190218232422 31 315 4.0 11.0 0.00 0.01 0.01 58 1037.0
20190218231921 31 323 3.0 11.0 0.00 0.01 0.01 56 1036.8
20190218231417 31 321 3.0 9.0 0.00 0.01 0.01 57 1036.9
20190218230917 30 326 3.0 9.0 0.00 0.01 0.01 60 1037.1
20190218230416 30 355 3.0 6.0 0.00 0.01 0.01 59 1037.0
20190218225926 30 320 4.0 8.0 0.00 0.01 0.01 58 1036.9
20190218225415 31 312 3.0 8.0 0.00 0.01 0.01 57 1037.3
20190218224923 31 320 3.0 8.0 0.00 0.01 0.01 57 1037.3
20190218224412 30 315 3.0 8.0 0.00 0.01 0.01 57 1037.2
20190218223912 31 304 3.0 9.0 0.00 0.01 0.01 57 1037.6
20190218223422 31 307 3.0 9.0 0.00 0.01 0.01 60 1037.5
20190218222920 31 344 3.0 7.0 0.00 0.02 0.01 57 1037.2
20190218222408 30 350 4.0 10.0 0.00 0.02 0.01 57 1037.1
20190218221914 31 322 4.0 10.0 0.00 0.02 0.01 58 1037.3
20190218221408 31 306 4.0 10.0 0.00 0.02 0.01 59 1037.3
20190218220909 30 320 4.0 9.0 0.00 0.02 0.01 61 1037.1
20190218220405 29 303 4.0 11.0 0.00 0.02 0.01 63 1036.9
20190218215906 29 317 5.0 11.0 0.00 0.03 0.01 63 1036.8
20190218215403 29 355 5.0 10.0 0.00 0.03 0.01 64 1037.0
20190218214904 30 10 5.0 10.0 0.00 0.03 0.01 65 1037.1
20190218214402 29 0 5.0 11.0 0.00 0.03 0.01 65 1037.1
20190218213906 29 295 5.0 11.0 0.00 0.03 0.01 64 1037.2
20190218213403 29 312 4.0 10.0 0.00 0.03 0.01 64 1037.2
20190218212903 29 327 3.0 10.0 0.00 0.03 0.01 64 1037.3
20190218212403 29 313 3.0 8.0 0.00 0.03 0.01 65 1037.5
20190218211857 29 346 3.0 7.0 0.00 0.03 0.01 65 1037.2
20190218211357 29 341 4.0 11.0 0.00 0.03 0.01 67 1037.2
20190218210901 29 309 5.0 11.0 0.00 0.03 0.01 66 1037.2
20190218210357 29 331 5.0 11.0 0.00 0.03 0.01 66 1037.2
20190218205857 29 355 4.0 11.0 0.00 0.03 0.01 66 1037.2
20190218205403 29 346 4.0 10.0 0.00 0.03 0.01 65 1037.3
20190218204902 29 310 4.0 9.0 0.00 0.04 0.01 67 1037.3
20190218204357 29 313 5.0 14.0 0.00 0.04 0.01 67 1037.6
20190218203854 29 355 6.0 14.0 0.00 0.04 0.01 64 1037.3
20190218203346 31 304 6.0 14.0 0.00 0.04 0.01 62 1037.8
20190218202847 31 292 7.0 14.0 0.00 0.05 0.01 62 1037.8
20190218202347 31 327 6.0 14.0 0.00 0.05 0.01 64 1037.9
20190218201850 31 340 4.0 11.0 0.00 0.05 0.01 63 1037.8
20190218201356 31 306 3.0 10.0 0.00 0.06 0.01 63 1037.9
20190218200845 31 336 3.0 11.0 0.00 0.06 0.01 63 1038.2
20190218200344 30 355 4.0 11.0 0.00 0.06 0.01 62 1038.0
20190218195852 30 306 5.0 11.0 0.00 0.07 0.01 63 1038.0
20190218195353 31 316 4.0 10.0 0.00 0.07 0.01 61 1037.3
20190218194844 32 312 4.0 12.0 0.00 0.08 0.01 59 1037.7
20190218194339 33 11 4.0 12.0 0.00 0.08 0.01 64 1038.0
20190218193838 33 321 4.0 11.0 0.00 0.08 0.01 65 1038.2
20190218193338 32 322 4.0 11.0 0.00 0.09 0.01 64 1038.0
20190218192838 33 348 4.0 10.0 0.00 0.09 0.01 63 1038.2
20190218192339 33 344 4.0 8.0 0.00 0.09 0.01 62 1038.2
20190218191833 32 334 4.0 10.0 0.00 0.10 0.01 63 1037.9
20190218191327 33 323 5.0 10.0 0.00 0.10 0.01 62 1038.0
20190218190825 32 333 5.0 10.0 0.00 0.11 0.01 61 1037.9
20190218190325 33 337 4.0 10.0 0.00 0.12 0.01 62 1037.9
20190218185824 32 349 3.0 11.0 0.00 0.12 0.01 63 1037.8
20190218185323 32 315 3.0 11.0 0.00 0.12 0.01 64 1037.3
20190218184833 32 343 3.0 9.0 0.01 0.13 0.01 65 1037.3
20190218184330 32 5 3.0 7.0 0.01 0.13 0.01 66 1037.2
20190218183831 31 0 4.0 10.0 0.01 0.14 0.01 64 1037.5
20190218183313 31 335 4.0 10.0 0.01 0.14 0.01 64 1037.3
20190218182808 31 304 4.0 10.0 0.01 0.14 0.01 63 1037.3
20190218182312 31 316 4.0 11.0 0.01 0.15 0.01 64 1037.3
20190218181819 31 323 4.0 11.0 0.01 0.15 0.01 65 1037.2
20190218181318 31 326 3.0 11.0 0.01 0.15 0.01 66 1037.2
20190218180815 30 15 2.0 9.0 0.01 0.15 0.01 69 1037.3
20190218180303 29 327 3.0 9.0 0.01 0.16 0.01 70 1037.1
20190218175759 29 346 3.0 9.0 0.01 0.16 0.01 70 1037.0
20190218175308 29 11 3.0 10.0 0.01 0.16 0.01 72 1036.8
20190218174759 28 5 4.0 10.0 0.00 0.15 0.00 72 1036.7
20190218174302 28 355 4.0 12.0 0.00 0.15 0.00 71 1036.5
20190218173800 27 340 4.0 12.0 0.00 0.15 0.00 74 1036.8
20190218173251 27 355 2.0 11.0 0.00 0.15 0.00 75 1036.5
20190218172750 26 338 2.0 10.0 0.00 0.15 0.00 76 1036.3
20190218172244 26 33 3.0 10.0 0.00 0.16 0.00 76 1036.4
20190218171739 25 349 2.0 10.0 0.00 0.16 0.00 76 1036.4
20190218171239 25 336 3.0 10.0 0.00 0.16 0.00 77 1036.3
20190218170739 25 340 2.0 9.0 0.00 0.16 0.00 77 1035.7
20190218170221 24 320 1.0 5.0 0.00 0.16 0.00 78 1035.6
20190218165730 24 339 2.0 9.0 0.00 0.16 0.00 79 1035.7
20190218165223 24 340 2.0 9.0 0.00 0.16 0.00 79 1035.6
20190218164720 23 320 1.0 7.0 0.00 0.16 0.00 80 1035.5
20190218164221 23 320 1.0 7.0 0.00 0.16 0.00 80 1035.4
20190218163721 23 337 0.0 1.0 0.00 0.16 0.00 80 1035.4
20190218163219 23 327 0.0 1.0 0.00 0.17 0.00 80 1035.2
20190218162715 23 339 0.0 0.0 0.00 0.17 0.00 81 1035.2
20190218162205 23 355 0.0 0.0 0.00 0.17 0.00 81 1035.2
20190218161656 23 355 0.0 0.0 0.00 0.17 0.00 81 1035.2
20190218161139 23 355 0.0 0.0 0.00 0.17 0.00 82 1034.7
20190218160639 22 355 0.0 0.0 0.00 0.17 0.00 81 1034.6
20190218160138 22 355 0.0 0.0 0.00 0.17 0.00 82 1034.6
20190218155608 22 355 0.0 2.0 0.00 0.18 0.00 83 1034.5
20190218155109 22 336 0.0 4.0 0.00 0.18 0.00 83 1034.2
20190218154608 22 343 1.0 5.0 0.00 0.18 0.00 83 1034.2
20190218154106 22 335 1.0 5.0 0.00 0.18 0.00 83 1034.2
20190218153604 21 327 1.0 6.0 0.00 0.18 0.00 83 1034.2
20190218153100 21 317 1.0 6.0 0.00 0.18 0.00 83 1034.1
20190218152557 21 346 0.0 4.0 0.00 0.18 0.00 83 1033.8
20190218152042 21 330 0.0 4.0 0.00 0.18 0.00 83 1033.7
20190218151531 21 15 1.0 5.0 0.00 0.18 0.00 83 1033.7
20190218151038 21 319 0.0 5.0 0.00 0.18 0.00 83 1033.2
20190218150538 21 338 0.0 1.0 0.00 0.18 0.00 83 1033.2
20190218150029 21 348 0.0 0.0 0.00 0.18 0.00 83 1033.2
20190218145517 21 340 0.0 0.0 0.00 0.19 0.00 83 1033.0
20190218145013 21 340 0.0 0.0 0.00 0.19 0.00 84 1033.0
20190218144505 21 340 0.0 0.0 0.00 0.19 0.00 84 1033.0
20190218143938 21 340 0.0 0.0 0.00 0.19 0.00 84 1032.7
20190218143438 21 333 0.0 0.0 0.00 0.19 0.00 84 1032.7
20190218142926 21 329 0.0 0.0 0.00 0.19 0.00 84 1032.7
20190218142426 21 330 0.0 4.0 0.00 0.19 0.00 84 1032.6
20190218141907 21 345 0.0 4.0 0.00 0.19 0.00 84 1032.6
20190218141404 21 327 0.0 4.0 0.00 0.19 0.00 84 1032.6
20190218140853 21 320 1.0 6.0 0.00 0.19 0.00 84 1032.6
20190218140341 21 313 1.0 6.0 0.00 0.19 0.00 84 1032.6
20190218135840 21 327 0.0 3.0 0.00 0.19 0.00 84 1032.6
20190218135325 20 338 0.0 3.0 0.00 0.19 0.00 84 1032.5
20190218134825 20 338 0.0 0.0 0.00 0.19 0.00 84 1032.5
20190218134327 20 342 0.0 3.0 0.00 0.19 0.00 84 1032.5
20190218133754 20 333 0.0 4.0 0.00 0.19 0.00 84 1032.5
20190218133250 20 347 0.0 4.0 0.00 0.19 0.00 84 1032.5
20190218132758 20 320 0.0 4.0 0.00 0.19 0.00 84 1032.5
20190218132251 20 323 0.0 4.0 0.00 0.19 0.00 84 1032.4
20190218131734 20 336 0.0 4.0 0.00 0.19 0.00 85 1032.3
20190218131244 20 344 0.0 2.0 0.00 0.19 0.00 85 1032.4
20190218130726 20 331 0.0 2.0 0.00 0.19 0.00 85 1032.1
20190218130227 20 342 0.0 0.0 0.00 0.19 0.00 84 1032.1
20190218125722 20 342 0.0 0.0 0.00 0.19 0.00 84 1031.9
20190218125200 20 342 0.0 0.0 0.00 0.19 0.00 84 1031.9
20190218124633 20 342 0.0 0.0 0.00 0.19 0.00 84 1031.9
20190218124143 21 342 0.0 1.0 0.00 0.19 0.00 84 1031.6
20190218123616 21 333 0.0 1.0 0.00 0.19 0.00 84 1031.7
20190218123125 21 325 0.0 5.0 0.00 0.19 0.00 84 1031.7
20190218122550 21 355 1.0 7.0 0.00 0.19 0.00 84 1031.5
20190218122047 21 340 1.0 7.0 0.00 0.19 0.00 84 1031.5
20190218121556 21 338 1.0 7.0 0.00 0.19 0.00 84 1031.5
20190218121034 21 348 1.0 6.0 0.00 0.19 0.00 85 1031.1
20190218120534 21 346 0.0 6.0 0.00 0.19 0.00 85 1031.1
20190218120032 21 325 0.0 4.0 0.00 0.19 0.00 85 1031.1
20190218115531 21 348 0.0 3.0 0.00 0.19 0.00 85 1031.1
20190218115031 21 327 0.0 4.0 0.00 0.19 0.00 86 1031.3
20190218114533 21 348 0.0 4.0 0.00 0.19 0.00 86 1031.3
20190218114030 21 31 0.0 6.0 0.00 0.19 0.00 86 1031.3
20190218113529 21 31 0.0 6.0 0.00 0.19 0.00 87 1031.3
20190218113022 21 347 0.0 3.0 0.00 0.19 0.00 87 1031.1
20190218112500 21 343 0.0 2.0 0.00 0.19 0.00 87 1031.3
20190218112002 21 339 0.0 0.0 0.00 0.19 0.00 87 1031.3
20190218111502 21 329 0.0 3.0 0.00 0.19 0.00 87 1031.1
20190218110931 20 313 0.0 3.0 0.00 0.19 0.00 87 1031.1
20190218110442 20 333 0.0 0.0 0.00 0.19 0.00 86 1031.0
20190218105933 20 337 0.0 3.0 0.00 0.19 0.00 86 1030.9
20190218105431 20 338 0.0 3.0 0.00 0.19 0.00 86 1030.9
20190218104930 20 331 0.0 0.0 0.00 0.19 0.00 85 1030.9
20190218104407 20 333 0.0 0.0 0.00 0.19 0.00 85 1031.0
20190218103855 21 333 0.0 0.0 0.00 0.19 0.00 85 1030.8
20190218103352 21 333 0.0 0.0 0.00 0.19 0.00 85 1030.8
20190218102841 21 332 0.0 0.0 0.00 0.19 0.00 85 1030.9
20190218102332 21 332 0.0 0.0 0.00 0.19 0.00 86 1031.0
20190218101756 21 332 0.0 0.0 0.00 0.19 0.00 86 1031.1
20190218101235 22 332 0.0 0.0 0.00 0.19 0.00 86 1031.1
20190218100730 22 332 0.0 2.0 0.00 0.19 0.00 86 1030.7
20190218100222 22 332 0.0 2.0 0.00 0.19 0.00 86 1030.7
20190218095717 22 319 0.0 2.0 0.00 0.19 0.00 86 1030.7
20190218095156 22 336 0.0 2.0 0.00 0.19 0.00 86 1030.7
20190218094700 22 333 0.0 2.0 0.00 0.19 0.00 86 1030.7
20190218094135 22 346 0.0 4.0 0.00 0.19 0.00 86 1031.0
20190218093635 22 355 0.0 4.0 0.00 0.19 0.00 86 1031.0
20190218093134 22 348 0.0 2.0 0.00 0.19 0.00 86 1031.0
20190218092626 22 338 0.0 3.0 0.00 0.19 0.00 86 1030.6
20190218092134 22 333 0.0 5.0 0.00 0.19 0.00 85 1030.6
20190218091618 22 348 0.0 5.0 0.00 0.19 0.00 85 1030.6
20190218091128 22 338 0.0 1.0 0.00 0.19 0.00 85 1030.6
20190218090559 22 346 0.0 2.0 0.00 0.19 0.00 85 1030.7
20190218090059 22 337 0.0 2.0 0.00 0.19 0.00 85 1030.7
20190218085600 22 9 0.0 0.0 0.00 0.19 0.00 85 1030.6
20190218085056 22 9 0.0 0.0 0.00 0.19 0.00 85 1030.7
20190218084527 22 9 0.0 0.0 0.00 0.19 0.00 85 1030.7
20190218083949 22 9 0.0 1.0 0.00 0.19 0.00 85 1030.6
20190218083449 22 9 0.0 1.0 0.00 0.19 0.00 85 1030.6
20190218082930 22 5 0.0 0.0 0.00 0.19 0.00 85 1030.6
20190218082424 22 0 0.0 0.0 0.00 0.19 0.00 85 1030.6
20190218081915 23 0 0.0 3.0 0.00 0.19 0.00 85 1030.6
20190218081410 23 347 0.0 5.0 0.00 0.19 0.00 85 1030.6
20190218080901 23 345 0.0 5.0 0.00 0.19 0.00 85 1030.4
20190218080359 23 329 0.0 0.0 0.00 0.19 0.00 85 1030.4
20190218075855 23 338 0.0 0.0 0.00 0.19 0.19 85 1030.6
20190218075350 23 325 0.0 5.0 0.00 0.19 0.19 85 1030.2
20190218074843 23 341 1.0 7.0 0.00 0.19 0.19 85 1030.2
20190218074341 24 330 0.0 7.0 0.00 0.19 0.19 86 1030.2
20190218073836 24 316 0.0 10.0 0.00 0.19 0.19 86 1030.2
20190218073335 24 350 0.0 10.0 0.00 0.19 0.19 86 1030.2
20190218072834 24 325 1.0 6.0 0.00 0.19 0.19 86 1030.2
20190218072331 24 0 1.0 6.0 0.00 0.19 0.19 86 1030.2
20190218071831 24 10 0.0 1.0 0.00 0.19 0.19 86 1030.2
20190218071329 24 30 0.0 5.0 0.00 0.19 0.19 86 1030.2
20190218070829 24 355 1.0 5.0 0.00 0.19 0.19 86 1030.2
20190218070320 24 350 0.0 5.0 0.00 0.19 0.19 86 1030.3
20190218065819 24 332 1.0 5.0 0.00 0.19 0.19 86 1030.3
20190218065319 24 350 1.0 5.0 0.00 0.19 0.19 86 1030.2
20190218064816 24 9 1.0 7.0 0.00 0.19 0.19 86 1030.3
20190218064311 24 351 1.0 7.0 0.00 0.19 0.19 86 1030.3
20190218063814 24 340 1.0 5.0 0.00 0.19 0.19 86 1030.0
20190218063308 24 344 1.0 6.0 0.00 0.19 0.19 86 1030.0
20190218062755 24 5 1.0 7.0 0.00 0.19 0.19 86 1030.0
20190218062302 24 350 1.0 7.0 0.00 0.19 0.19 86 1029.9
20190218061802 24 344 1.0 9.0 0.00 0.19 0.19 86 1030.0
20190218061235 24 344 1.0 9.0 0.00 0.19 0.19 86 1030.0
20190218060736 24 350 2.0 7.0 0.00 0.19 0.19 87 1029.9
20190218060234 24 355 2.0 10.0 0.00 0.19 0.19 87 1029.9
20190218055732 24 0 1.0 10.0 0.00 0.19 0.19 87 1029.5
20190218055240 24 344 1.0 7.0 0.00 0.19 0.19 87 1029.5
20190218054719 24 329 1.0 12.0 0.00 0.19 0.19 87 1029.5